Regional Weather Roundup
Issued by NWS

Home | Current Version | Previous Version | Text Only | Print | Product List | Glossary On
Versions: 1 2 3 4 5 6 7 8 9 10 11 12 13 14 15 16 17 18 19 20 21 22 23 24 25 26 27 28 29 30 31 32 33 34 35 36 37 38 39 40 41 42 43 44 45 46 47 48 49 50
000
ASHW40 PHFO 260932
RWRHI

WEATHER ROUNDUP FOR HAWAII
NATIONAL WEATHER SERVICE HONOLULU HI
1100 PM HST MON JUL 25 2016

THIS IS AN AUTOMATED REPORT THAT HAS NOT BEEN QUALITY CONTROLLED.

NOTE..."FAIR" INDICATES FEW OR NO CLOUDS BELOW 12,000 FEET WITH NO
SIGNIFICANT WEATHER AND/OR OBSTRUCTIONS TO VISIBILITY.

* - THESE SITES REPORT LIMITED FIELDS

HIZ001>004-261000-
KAUAI-NIIHAU-

CITY           SKY/WX    TMP DP  RH WIND       PRES   REMARKS
LIHUE APT      PTCLDY    79  76  90 E9        30.04S
PORT ALLEN*      N/A     77 N/A N/A NE7         N/A
POIPU*           N/A     77 N/A N/A NE5         N/A
PRINCEVILLE*     N/A     77 N/A N/A SE3         N/A
KOKOLE POINT*  NOT AVBL
MOLOAA DAIRY*    N/A     77  75  94 SE6G13      N/A
WAIMEA HTS*    NOT AVBL
PUU OPAE*      NOT AVBL
PUU LUA*       NOT AVBL
MAKAHA RIDGE*    N/A     72  64  78 CALM        N/A
$$

HIZ005>011-261000-
OAHU-

CITY           SKY/WX    TMP DP  RH WIND       PRES   REMARKS
HONOLULU       PTCLDY    75  70  84 NE5       30.02R
KALAELOA       CLEAR     79  70  74 NE5       30.03R
KANEOHE MCB    CLOUDY    80  72  76 E5        30.02R
WHEELER FIELD  FAIR      76  71  84 N1        30.05S
BELLOWS*         N/A    N/A N/A N/A NE12        N/A
KAHUKU*          N/A    N/A N/A N/A VRB8        N/A
WHEELER*       NOT AVBL
WAIANAE HARBOR NOT AVBL
DILLINGHAM*      N/A     73  70  88 MISG        N/A
KAHUKU TRN*      N/A     90  88  94 W8G17       N/A  HX 124
KAWAILOA*        N/A     73  64  73 E6          N/A
KII*             N/A     79  73  83 E14         N/A
MAKUA RANGE*     N/A     90  84  84 NW5         N/A  HX 115
OAHU FOREST NW NOT AVBL
SCHOFIELD BRK*   N/A     84  84 100 MISG        N/A  HX 104
SCHOFIELD S*   NOT AVBL
WAIANAE VLY*   NOT AVBL
KUAOKALA*      NOT AVBL
HONOULIUULI*   NOT AVBL
MOKUOLOE IS*   NOT AVBL
PALEHUA*       NOT AVBL
WAIAWA PHB*    NOT AVBL
$$

HIZ012>013-261000-
MOLOKAI-

CITY           SKY/WX    TMP DP  RH WIND       PRES   REMARKS
MOLOKAI AIRPT  CLEAR     76  66  71 CALM      30.03R
KALAUPAPA      NOT AVBL
MAKAPULAPAI*     N/A     77  68  73 E9G18       N/A
MOLOKAI 1*     NOT AVBL
PUU ALII*        N/A     62  54  75 NE3G10      N/A
$$

HIZ016-261000-
KAHOOLAWE-

CITY           SKY/WX    TMP DP  RH WIND       PRES   REMARKS
KAHOOLAWE*     NOT AVBL
HAKIOAWA*        N/A     74  70  87 MISG      30.44R
HONOKANAIA*      N/A     78  69  74 NE12G26   29.95R
KANELOA*         N/A     75  72  88 E17G30    30.07R
KEALIALALO*    NOT AVBL
LUA MAKIKA*    NOT AVBL
$$

HIZ014>015-261000-
LANAI-

CITY           SKY/WX    TMP DP  RH WIND       PRES   REMARKS
LANAI CITY     CLOUDY    73  70  90 NE6       30.09R
LANAI 1*       NOT AVBL
$$

HIZ017>028-261000-
MAUI-

CITY           SKY/WX    TMP DP  RH WIND       PRES   REMARKS
KAHULUI        PTCLDY    75  70  84 SE5       30.01R
KAPALUA-W MAUI NOT AVBL
HANA AIRPORT     N/A     75  72  88 S2        30.07S
HANA*            N/A     77 N/A N/A SE3         N/A
HALEAKALA SUMM   N/A     50  23  34 SE35        N/A
MAALAEA BAY*     N/A     79 N/A N/A N13G23      N/A
HALEAKALA*     NOT AVBL
KAUPO GAP*     NOT AVBL
KULA 1*          N/A    N/A N/A N/A SE15G26     N/A
$$

HIZ023>026-261000-
BIG ISLAND OF HAWAII COAST AND LOWER SLOPES-

CITY           SKY/WX    TMP DP  RH WIND       PRES   REMARKS
KAILUA KONA    CLOUDY    82  78  88 W13       29.97S HX  91
HILO           CLEAR     75  71  87 SW6       30.04R
HONOKAA*         N/A     68 N/A N/A VRB1        N/A
KAWAIHAE MWT*    N/A     81 N/A N/A NE2         N/A
KAWAIHAE*        N/A     81 N/A N/A NE5       29.98S
SOUTH POINT*     N/A     73 N/A N/A N18G26      N/A
UPOLU AIRPORT*   N/A    N/A N/A N/A E14G21      N/A
KAMUELA*       SUNNY     61  57  88 E7        30.12S
HAKALAU*         N/A    N/A N/A N/A SW8         N/A
KALOKO-HONOKO*   N/A     81  75  83 NW6G12    29.97R
PALI 2*          N/A     66  48  52 E2G15       N/A
KEALAKOMO*       N/A     79  68  69 NE10G18     N/A
KAUPULEHU*     NOT AVBL
KAPAPALA*        N/A     61  58  89 NW7         N/A
LOWER KAHUKU*    N/A     64  48  55 N3G14       N/A
PUHE CS*         N/A     81  68  65 SW1G8       N/A
PUHO CS*       NOT AVBL
PTA KEAMUKU*     N/A    N/A N/A N/A CALM        N/A
WAIKOLOA*      NOT AVBL
$$

HIZ027>028-261000-
BIG ISLAND OF HAWAII INTERIOR AND SUMMMITS-

CITY           SKY/WX    TMP DP  RH WIND       PRES   REMARKS
BRADSHAW FIELD   N/A    N/A N/A N/A SE14        N/A
MK VISITOR CEN   N/A     52  23  32 NE12        N/A
MAUNA KEA*       N/A     34  18  51 S17         N/A  WCI  23
MAUNA LOA*       N/A    N/A N/A N/A MISG        N/A
MAUNA LOA 1*   NOT AVBL
PTA KIPUKA*      N/A     59  43  55 SE7G13      N/A
PTA RANGE 17*    N/A    N/A N/A N/A SE15G23     N/A
PTA WEST*        N/A     61  59  94 SE3G10      N/A
NENE CABIN*      N/A    N/A N/A N/A NE8G15      N/A
AHUMOA*        NOT AVBL
PTA PORTABLE*  NOT AVBL
PUU MALI*        N/A    N/A N/A N/A SE21G36     N/A
$$

HIC003-261000-
NORTHWEST ISLANDS-

CITY           SKY/WX    TMP DP  RH WIND       PRES   REMARKS
MIDWAY ISLAND  RAIN      73  72  94 E17       30.17R FOG
MIDWAY NOS*      N/A     75 N/A N/A MISG      30.16R
FRENCH FRIGATE NOT AVBL
$$

PHZ110>124-180-261000-
BUOY REPORTS

STATION/POSITION TIME  TEMP    WIND        PRES    WAVE   SWELL
                       AIR SEA DIR/SP/G            HT/PER HT/DIR
                 (UTC) (F)     (DEG/KT/KT) (MB)    (FT/S) (FT/D)
BUOY 51001       0900   80 81   80/ 12/ 16 1016.0R
BUOY 51101       0850   78 78   60/ 16/ 17 1016.0R   7/ 9   5/100
BUOY 51100       NOT AVBL
BUOY 51002       0850   81 82   80/ 10/ 12 1014.1R   6/ 8   5
BUOY 51003       0850   81 82  110/ 10/ 12 1015.0R   5/ 8   5/ 10
BUOY 51004       0850   81 81   80/ 16/ 19 1015.5R   6/ 6   3/160
BARBERS PT BUOY  NOT AVBL
WAIMEA BAY BUOY  0904      80                N/A     3/ 7
KAILUA BAY BUOY  0911      80                N/A     5/10   2/ 70
LANAI BUOY       0915      83                N/A     3/13   2/190
BARBERS PT 2     NOT AVBL
PAUWELA MAUI     0909      80                N/A     5/ 9   2/ 70
HILO             0912      79                N/A     5/ 9   2/ 50
KANEOHE BAY BUOY 0906      79                N/A     4/10
HANALEI KAUAI    NOT AVBL
KAHULUI HARBOR   0900   78 81   20/  3/  4 1016.0R
HONOLULU HARBOR  0900   80 80   30/  3/  5 1017.1R
KILO NALU        NOT AVBL
HILO HARBOR      0900   75 79  220/  5/  7 1016.8R
MOKUOLOE         0800   80 81   90/  5/  8 1017.0R
NAWILIWILI       0900   79 80   60/  7/  9 1016.8S
WHOTS BUOY       NOT AVBL
BUOY 51028       NOT AVBL
$$

......................KEY........................................
  SKY/WX - SKY CONDITIONS/PRESENT WEATHER
  TMP    - TEMPERATURE IN FAHRENHEIT
  DWPT   - DEWPOINT IN FAHRENHEIT
  RH     - RELATIVE HUMIDITY IN PERCENT
  WIND   - DIRECTION AND SPEED /MPH FOR ISLANDS...KTS FOR BUOYS/
  PRES   - MEAN SEA LEVEL PRESSURE IN INCHES OF HG
  VSB    - VISIBILITY IN MILES
  HX     - HEAT INDEX
  WCI    - WIND CHILL INDEX
  VRB    - VARIABLE WIND DIRECTION
  N/A    - NOT AVAILABLE




USA.gov is the U.S. government's official web portal to all federal, state and local government web resources and services.